,,PA_Meas_PMT16A,,PR_Meas_QMR101_102,,RH_Meas_QMH101,,SR_Meas_QMS101,,TA_Meas_QMH101,,GenWind,,GenWind,
time,status,PA,status,PR,status,RH,status,SR,status,TA,status,DirAvg,status,SpdAvg,
2014-07-25, 06:58:04,VALID,918.488,VALID,0,VALID,73.0552,VALID,42.3318,VALID,19.2738,VALID,15,VALID,0.419531,
2014-07-25, 06:59:04,VALID,918.493,VALID,0,VALID,72.6816,VALID,45.7699,VALID,19.3128,VALID,15,VALID,0.792188,
2014-07-25, 07:00:04,VALID,918.519,VALID,0,VALID,72.2319,VALID,48.5634,VALID,19.3937,VALID,15,VALID,0.909766,
2014-07-25, 07:01:04,VALID,918.54,VALID,0,VALID,71.8659,VALID,50.9271,VALID,19.4703,VALID,15,VALID,0.926172,
2014-07-25, 07:02:04,VALID,918.589,VALID,0,VALID,71.4619,VALID,53.0759,VALID,19.5888,VALID,15,VALID,0.714844,
2014-07-25, 07:03:04,VALID,918.637,VALID,0,VALID,71.1875,VALID,55.2248,VALID,19.6668,VALID,15,VALID,0.576953,
2014-07-25, 07:04:04,VALID,918.644,VALID,0,VALID,71.622,VALID,58.1257,VALID,19.7058,VALID,15,VALID,0.7875,
2014-07-25, 07:05:04,VALID,918.679,VALID,0,VALID,71.8278,VALID,61.7787,VALID,19.6458,VALID,15,VALID,0.740625,
2014-07-25, 07:06:04,VALID,918.673,VALID,0,VALID,71.8202,VALID,65.6465,VALID,19.6068,VALID,15,VALID,0.779688,
2014-07-25, 07:07:04,VALID,918.711,VALID,0,VALID,71.7668,VALID,69.1921,VALID,19.6263,VALID,16,VALID,0.866797,
2014-07-25, 07:08:04,VALID,918.726,VALID,0,VALID,71.2866,VALID,72.4153,VALID,19.7058,VALID,18,VALID,0.789844,
2014-07-25, 07:09:04,VALID,918.684,VALID,0,VALID,71.2484,VALID,75.1014,VALID,19.7643,VALID,18,VALID,1.12031,
2014-07-25, 07:10:04,VALID,918.758,VALID,0,VALID,71.5153,VALID,77.68,VALID,19.8018,VALID,18,VALID,0.901172,
2014-07-25, 07:11:04,VALID,918.761,VALID,0,VALID,70.326,VALID,80.7957,VALID,19.8603,VALID,18,VALID,1.25352,
2014-07-25, 07:12:04,VALID,918.818,VALID,0,VALID,71.0731,VALID,84.3413,VALID,19.9383,VALID,18,VALID,0.983203,
2014-07-25, 07:13:04,VALID,918.828,VALID,0,VALID,71.6296,VALID,88.8538,VALID,19.8978,VALID,18,VALID,0.684375,
2014-07-25, 07:14:04,VALID,918.789,VALID,0,VALID,71.7973,VALID,93.5812,VALID,19.8798,VALID,17,VALID,0.936719,
2014-07-25, 07:15:04,VALID,918.787,VALID,0,VALID,71.683,VALID,97.8789,VALID,19.8588,VALID,17,VALID,1.07539,
2014-07-25, 07:16:04,VALID,918.821,VALID,0,VALID,72.1937,VALID,102.069,VALID,19.8588,VALID,17,VALID,0.563672,
2014-07-25, 07:17:04,VALID,918.809,VALID,0,VALID,72.0032,VALID,105.83,VALID,19.8978,VALID,17,VALID,0.675781,
2014-07-25, 07:18:04,VALID,918.834,VALID,0,VALID,71.7516,VALID,110.02,VALID,19.9758,VALID,17,VALID,0.521484,
2014-07-25, 07:19:04,VALID,918.872,VALID,0,VALID,70.8825,VALID,113.458,VALID,20.0928,VALID,17,VALID,0.641406,
2014-07-25, 07:20:04,VALID,918.883,VALID,0,VALID,70.852,VALID,116.789,VALID,20.1724,VALID,17,VALID,0.710938,
2014-07-25, 07:21:04,VALID,918.848,VALID,0,VALID,70.448,VALID,120.227,VALID,20.2699,VALID,17,VALID,0.845703,
2014-07-25, 07:22:04,VALID,918.858,VALID,0,VALID,69.7771,VALID,123.772,VALID,20.3479,VALID,17,VALID,0.792188,
2014-07-25, 07:23:04,VALID,918.877,VALID,0,VALID,69.0681,VALID,126.673,VALID,20.465,VALID,17,VALID,0.651563,
2014-07-25, 07:24:04,VALID,918.867,VALID,0,VALID,69.3883,VALID,129.789,VALID,20.5625,VALID,17,VALID,0.646094,
2014-07-25, 07:25:04,VALID,918.902,VALID,0,VALID,68.8166,VALID,133.227,VALID,20.699,VALID,17,VALID,0.732031,
2014-07-25, 07:26:04,VALID,918.931,VALID,0,VALID,70.0592,VALID,135.268,VALID,20.8161,VALID,17,VALID,0.553125,
2014-07-25, 07:27:04,VALID,918.955,VALID,0,VALID,69.7314,VALID,137.525,VALID,20.8925,VALID,16,VALID,0.460156,
2014-07-25, 07:28:04,VALID,918.943,VALID,0,VALID,69.617,VALID,139.888,VALID,20.9511,VALID,15,VALID,0.455469,
2014-07-25, 07:29:04,VALID,918.946,VALID,0,VALID,68.969,VALID,142.145,VALID,21.0486,VALID,15,VALID,0.730078,
2014-07-25, 07:30:04,VALID,918.993,VALID,0,VALID,69.4417,VALID,144.186,VALID,21.1461,VALID,15,VALID,0.196484,
2014-07-25, 07:31:04,VALID,918.957,VALID,0,VALID,69.9448,VALID,145.368,VALID,21.2047,VALID,15,VALID,0,
2014-07-25, 07:32:04,VALID,918.974,VALID,0,VALID,67.1547,VALID,150.418,VALID,21.3217,VALID,15,VALID,0.0914062,
2014-07-25, 07:33:04,VALID,918.954,VALID,0,VALID,67.5663,VALID,151.922,VALID,21.5168,VALID,15,VALID,0.601172,
2014-07-25, 07:34:04,VALID,918.961,VALID,0,VALID,66.034,VALID,152.029,VALID,21.6534,VALID,15,VALID,0.822266,
2014-07-25, 07:35:04,VALID,918.976,VALID,0,VALID,67.6349,VALID,150.095,VALID,21.712,VALID,15,VALID,0.646484,
2014-07-25, 07:36:04,VALID,918.975,VALID,0,VALID,68.5726,VALID,151.062,VALID,21.7917,VALID,15,VALID,0.6375,
2014-07-25, 07:37:04,VALID,919.007,VALID,0,VALID,65.2183,VALID,149.236,VALID,21.751,VALID,15,VALID,0.812109,
2014-07-25, 07:38:04,VALID,919.021,VALID,0,VALID,64.6085,VALID,151.277,VALID,21.751,VALID,15,VALID,0.691406,
2014-07-25, 07:39:04,VALID,919.026,VALID,0,VALID,65.5614,VALID,163.848,VALID,21.79,VALID,18,VALID,1.18359,
2014-07-25, 07:40:04,VALID,919.032,VALID,0,VALID,65.6376,VALID,172.55,VALID,21.7883,VALID,18,VALID,0.863281,
2014-07-25, 07:41:04,VALID,919.04,VALID,0,VALID,67.8179,VALID,179.749,VALID,21.8681,VALID,18,VALID,0.522656,
2014-07-25, 07:42:04,VALID,919.066,VALID,0,VALID,66.2704,VALID,186.733,VALID,21.9266,VALID,18,VALID,0.570703,
2014-07-25, 07:43:04,VALID,919.059,VALID,0,VALID,66.3923,VALID,191.782,VALID,21.9656,VALID,18,VALID,0.611328,
2014-07-25, 07:44:04,VALID,919.039,VALID,0,VALID,64.0824,VALID,198.659,VALID,22.0047,VALID,18,VALID,1.65078,
2014-07-25, 07:45:04,VALID,919.072,VALID,0,VALID,65.5461,VALID,202.741,VALID,21.9461,VALID,18,VALID,1.16094,
2014-07-25, 07:46:04,VALID,919.091,VALID,0,VALID,66.9793,VALID,204.783,VALID,21.8859,VALID,18,VALID,1.16602,
2014-07-25, 07:47:04,VALID,919.098,VALID,0,VALID,68.7022,VALID,207.684,VALID,21.8859,VALID,18,VALID,0.766406,
2014-07-25, 07:48:04,VALID,919.09,VALID,0,VALID,68.2677,VALID,209.94,VALID,21.9249,VALID,18,VALID,0.716016,
2014-07-25, 07:49:04,VALID,919.086,VALID,0,VALID,69.0148,VALID,215.957,VALID,21.9444,VALID,18,VALID,0.958594,
2014-07-25, 07:50:04,VALID,919.089,VALID,0,VALID,69.4341,VALID,221.221,VALID,21.964,VALID,18,VALID,0.774219,
2014-07-25, 07:51:04,VALID,919.088,VALID,0,VALID,67.9628,VALID,226.808,VALID,22.042,VALID,18,VALID,1.09727,
2014-07-25, 07:52:04,VALID,919.091,VALID,0,VALID,65.4013,VALID,230.246,VALID,22.1396,VALID,18,VALID,1.27461,
2014-07-25, 07:53:04,VALID,919.073,VALID,0,VALID,63.0609,VALID,234.222,VALID,22.1786,VALID,15,VALID,1.49219,
2014-07-25, 07:54:04,VALID,919.103,VALID,0,VALID,66.3085,VALID,237.23,VALID,22.2176,VALID,15,VALID,0.95625,
2014-07-25, 07:55:04,VALID,919.112,VALID,0,VALID,64.0214,VALID,238.412,VALID,22.255,VALID,15,VALID,0.785937,
2014-07-25, 07:56:04,VALID,919.135,VALID,0,VALID,64.5322,VALID,238.627,VALID,22.3135,VALID,15,VALID,0.992188,
2014-07-25, 07:57:04,VALID,919.126,VALID,0,VALID,65.1573,VALID,239.701,VALID,22.372,VALID,15,VALID,0.658594,
2014-07-25, 07:58:04,VALID,919.132,VALID,0,VALID,64.273,VALID,241.313,VALID,22.4713,VALID,15,VALID,0.327344,
2014-07-25, 07:59:04,VALID,919.136,VALID,0,VALID,64.6161,VALID,243.354,VALID,22.6274,VALID,15,VALID,0.566797,
2014-07-25, 08:00:04,VALID,919.162,VALID,0,VALID,65.9426,VALID,248.726,VALID,22.7836,VALID,15,VALID,0.464063,
2014-07-25, 08:01:04,VALID,919.178,VALID,0,VALID,63.5183,VALID,252.379,VALID,22.9592,VALID,15,VALID,0.904297,
2014-07-25, 08:02:04,VALID,919.217,VALID,0,VALID,63.9376,VALID,257.966,VALID,23.0763,VALID,15,VALID,0.773047,
2014-07-25, 08:03:04,VALID,919.216,VALID,0,VALID,62.451,VALID,262.371,VALID,23.1544,VALID,15,VALID,1.01133,
2014-07-25, 08:04:04,VALID,919.249,VALID,0,VALID,62.6721,VALID,267.851,VALID,23.1935,VALID,17,VALID,0.741016,
2014-07-25, 08:05:04,VALID,919.224,VALID,0,VALID,61.9021,VALID,270.752,VALID,23.252,VALID,15,VALID,1.01328,
2014-07-25, 08:06:04,VALID,919.246,VALID,0,VALID,61.1322,VALID,275.694,VALID,23.2325,VALID,15,VALID,1.33047,
2014-07-25, 08:07:04,VALID,919.255,VALID,0,VALID,59.3788,VALID,279.347,VALID,23.1739,VALID,15,VALID,1.22969,
2014-07-25, 08:08:04,VALID,919.31,VALID,0,VALID,61.803,VALID,282.14,VALID,23.1722,VALID,15,VALID,0.927344,
2014-07-25, 08:09:04,VALID,919.286,VALID,0,VALID,60.9111,VALID,285.901,VALID,23.1544,VALID,15,VALID,0.796875,
2014-07-25, 08:10:04,VALID,919.28,VALID,0,VALID,61.338,VALID,291.918,VALID,23.1739,VALID,15,VALID,0.48125,
2014-07-25, 08:11:04,VALID,919.24,VALID,0,VALID,60.9797,VALID,294.604,VALID,23.3106,VALID,15,VALID,0.371484,
2014-07-25, 08:12:04,VALID,919.244,VALID,0,VALID,59.92,VALID,297.29,VALID,23.5253,VALID,15,VALID,0.324609,
2014-07-25, 08:13:04,VALID,919.198,VALID,0,VALID,59.4245,VALID,299.116,VALID,23.662,VALID,15,VALID,0.207031,
2014-07-25, 08:14:04,VALID,919.218,VALID,0,VALID,58.6164,VALID,303.091,VALID,23.701,VALID,15,VALID,0.325781,
2014-07-25, 08:15:04,VALID,919.246,VALID,0,VALID,59.0357,VALID,307.174,VALID,23.5253,VALID,15,VALID,0.666016,
2014-07-25, 08:16:04,VALID,919.256,VALID,0,VALID,59.0357,VALID,308.893,VALID,23.4454,VALID,15,VALID,0.0449219,
2014-07-25, 08:17:04,VALID,919.279,VALID,0,VALID,61.0788,VALID,312.546,VALID,23.5821,VALID,15,VALID,0.672266,
2014-07-25, 08:18:04,VALID,919.272,VALID,0,VALID,60.3393,VALID,317.381,VALID,23.7791,VALID,15,VALID,0.561328,
2014-07-25, 08:19:04,VALID,919.272,VALID,0,VALID,59.4626,VALID,319.423,VALID,23.9743,VALID,15,VALID,0.862109,
2014-07-25, 08:20:04,VALID,919.265,VALID,0,VALID,57.0079,VALID,323.29,VALID,24.0506,VALID,15,VALID,0.514844,
2014-07-25, 08:21:04,VALID,919.237,VALID,0,VALID,56.3904,VALID,327.051,VALID,23.953,VALID,15,VALID,0.439844,
2014-07-25, 08:22:04,VALID,919.26,VALID,0,VALID,56.0702,VALID,330.811,VALID,23.8358,VALID,15,VALID,0.644922,
2014-07-25, 08:23:04,VALID,919.244,VALID,0,VALID,58.0599,VALID,334.787,VALID,23.7773,VALID,15,VALID,0.475391,
2014-07-25, 08:24:04,VALID,919.259,VALID,0,VALID,58.4945,VALID,339.084,VALID,23.8749,VALID,15,VALID,0.288281,
2014-07-25, 08:25:04,VALID,919.265,VALID,0,VALID,59.0434,VALID,339.944,VALID,24.0311,VALID,15,VALID,0.382813,
2014-07-25, 08:26:04,VALID,919.261,VALID,0,VALID,58.5707,VALID,342.845,VALID,24.2049,VALID,15,VALID,0.714844,
2014-07-25, 08:27:04,VALID,919.258,VALID,0,VALID,57.9685,VALID,345.531,VALID,24.1854,VALID,15,VALID,0.31875,
2014-07-25, 08:28:04,VALID,919.265,VALID,0,VALID,58.1819,VALID,349.184,VALID,24.1073,VALID,18,VALID,0.991406,
2014-07-25, 08:29:04,VALID,919.261,VALID,0,VALID,58.9443,VALID,352.407,VALID,24.0878,VALID,16,VALID,0.605469,
2014-07-25, 08:30:04,VALID,919.296,VALID,0,VALID,58.868,VALID,354.126,VALID,24.0506,VALID,15,VALID,0.887891,
2014-07-25, 08:31:04,VALID,919.301,VALID,0,VALID,58.1209,VALID,354.771,VALID,23.8145,VALID,15,VALID,0.503516,
2014-07-25, 08:32:04,VALID,919.34,VALID,0,VALID,59.7142,VALID,361.969,VALID,23.6797,VALID,15,VALID,0.546094,
2014-07-25, 08:33:04,VALID,919.366,VALID,0,VALID,60.7586,VALID,367.234,VALID,23.7578,VALID,18,VALID,0.442969,
2014-07-25, 08:34:04,VALID,919.367,VALID,0,VALID,60.4384,VALID,370.994,VALID,23.9725,VALID,18,VALID,0.696484,
2014-07-25, 08:35:04,VALID,919.375,VALID,0,VALID,59.7371,VALID,374.862,VALID,24.1287,VALID,18,VALID,0.00195313,
2014-07-25, 08:36:04,VALID,919.37,VALID,0,VALID,58.9747,VALID,378.73,VALID,24.363,VALID,18,VALID,0.214062,
2014-07-25, 08:37:04,VALID,919.419,VALID,0,VALID,58.0142,VALID,381.309,VALID,24.6168,VALID,17,VALID,1.25469,
2014-07-25, 08:38:04,VALID,919.384,VALID,0,VALID,57.9837,VALID,385.929,VALID,24.654,VALID,16,VALID,1.72656,
2014-07-25, 08:39:04,VALID,919.429,VALID,0,VALID,58.4792,VALID,388.185,VALID,24.4997,VALID,15,VALID,1.08672,
2014-07-25, 08:40:04,VALID,919.457,VALID,0,VALID,58.4411,VALID,391.516,VALID,24.3825,VALID,15,VALID,0.746875,
2014-07-25, 08:41:04,VALID,919.488,VALID,0,VALID,57.7398,VALID,395.383,VALID,24.3044,VALID,15,VALID,0.108984,
2014-07-25, 08:42:04,VALID,919.409,VALID,0,VALID,57.4806,VALID,399.359,VALID,24.2458,VALID,15,VALID,0.541016,
2014-07-25, 08:43:04,VALID,919.439,VALID,0,VALID,57.9837,VALID,400.541,VALID,24.2458,VALID,18,VALID,0.641406,
2014-07-25, 08:44:04,VALID,919.426,VALID,0,VALID,58.2124,VALID,404.623,VALID,24.3435,VALID,18,VALID,0.596094,
2014-07-25, 08:45:04,VALID,919.421,VALID,0,VALID,56.924,VALID,405.805,VALID,24.4197,VALID,17,VALID,0.744141,
2014-07-25, 08:46:04,VALID,919.415,VALID,0,VALID,58.6698,VALID,409.028,VALID,24.4587,VALID,15,VALID,0.203906,
2014-07-25, 08:47:04,VALID,919.419,VALID,0,VALID,57.4196,VALID,414.401,VALID,24.5759,VALID,15,VALID,0,
2014-07-25, 08:48:04,VALID,919.461,VALID,0,VALID,56.9469,VALID,417.731,VALID,24.7711,VALID,15,VALID,0.376563,
2014-07-25, 08:49:04,VALID,919.48,VALID,0,VALID,55.7805,VALID,421.814,VALID,24.693,VALID,15,VALID,0.766016,
2014-07-25, 08:50:04,VALID,919.45,VALID,0,VALID,58.1209,VALID,423.533,VALID,24.4197,VALID,15,VALID,0.636328,
2014-07-25, 08:51:04,VALID,919.453,VALID,0,VALID,57.5949,VALID,427.401,VALID,24.283,VALID,15,VALID,0.528125,
2014-07-25, 08:52:04,VALID,919.422,VALID,0,VALID,59.1653,VALID,428.905,VALID,24.244,VALID,17,VALID,0.665625,
2014-07-25, 08:53:04,VALID,919.415,VALID,0,VALID,58.525,VALID,430.194,VALID,24.4002,VALID,15,VALID,1.07656,
2014-07-25, 08:54:04,VALID,919.449,VALID,0,VALID,58.5555,VALID,433.632,VALID,24.5564,VALID,14,VALID,0.565625,
2014-07-25, 08:55:04,VALID,919.457,VALID,0,VALID,57.3281,VALID,436.641,VALID,24.5564,VALID,14,VALID,0.59375,
2014-07-25, 08:56:04,VALID,919.504,VALID,0,VALID,56.5276,VALID,439.649,VALID,24.4978,VALID,15,VALID,0.361328,
2014-07-25, 08:57:04,VALID,919.51,VALID,0,VALID,57.4348,VALID,441.261,VALID,24.5759,VALID,16,VALID,1.07969,
2014-07-25, 08:58:04,VALID,919.517,VALID,0,VALID,54.7819,VALID,445.129,VALID,24.6326,VALID,15,VALID,2.28906,
2014-07-25, 08:59:04,VALID,919.501,VALID,0,VALID,57.572,VALID,446.418,VALID,24.6716,VALID,16,VALID,0.651563,
2014-07-25, 09:00:04,VALID,919.483,VALID,0,VALID,56.6649,VALID,449.319,VALID,24.8492,VALID,16,VALID,0.248437,
2014-07-25, 09:01:04,VALID,919.497,VALID,0,VALID,56.8326,VALID,454.154,VALID,24.7693,VALID,16,VALID,0.992578,
2014-07-25, 09:02:04,VALID,919.501,VALID,0,VALID,57.0994,VALID,459.741,VALID,24.5564,VALID,15,VALID,0.996484,
2014-07-25, 09:03:04,VALID,919.503,VALID,0,VALID,58.159,VALID,462.964,VALID,24.4002,VALID,15,VALID,0.428516,
2014-07-25, 09:04:04,VALID,919.459,VALID,0,VALID,58.4792,VALID,466.402,VALID,24.4783,VALID,18,VALID,1.72187,
2014-07-25, 09:05:04,VALID,919.474,VALID,0,VALID,58.8604,VALID,472.204,VALID,24.6131,VALID,15,VALID,0.587891,
2014-07-25, 09:06:04,VALID,919.494,VALID,0,VALID,57.0689,VALID,472.849,VALID,24.7321,VALID,15,VALID,0.551172,
2014-07-25, 09:07:04,VALID,919.502,VALID,0,VALID,56.0092,VALID,475.427,VALID,24.7711,VALID,15,VALID,0.440234,
2014-07-25, 09:08:04,VALID,919.52,VALID,0,VALID,56.924,VALID,479.832,VALID,24.9274,VALID,16,VALID,1.29727,
2014-07-25, 09:09:04,VALID,919.558,VALID,0,VALID,56.4666,VALID,484.022,VALID,25.0836,VALID,15,VALID,0.478516,
2014-07-25, 09:10:04,VALID,919.541,VALID,0,VALID,55.9635,VALID,485.204,VALID,25.1226,VALID,15,VALID,0.436328,
2014-07-25, 09:11:04,VALID,919.531,VALID,0,VALID,55.9711,VALID,488.642,VALID,25.2027,VALID,15,VALID,0.776563,
2014-07-25, 09:12:04,VALID,919.533,VALID,0,VALID,55.3384,VALID,492.295,VALID,25.2398,VALID,16,VALID,1.15234,
2014-07-25, 09:13:04,VALID,919.507,VALID,0,VALID,57.7169,VALID,495.304,VALID,25.2398,VALID,16,VALID,0.497266,
2014-07-25, 09:14:04,VALID,919.492,VALID,0,VALID,55.0792,VALID,498.097,VALID,25.2203,VALID,16,VALID,1.34609,
2014-07-25, 09:15:04,VALID,919.504,VALID,0,VALID,55.0868,VALID,500.891,VALID,25.2593,VALID,15,VALID,1.06992,
2014-07-25, 09:16:04,VALID,919.511,VALID,0,VALID,55.9864,VALID,504.544,VALID,25.2593,VALID,15,VALID,1.25977,
2014-07-25, 09:17:04,VALID,919.547,VALID,0,VALID,56.4057,VALID,509.701,VALID,25.064,VALID,15,VALID,0.714844,
2014-07-25, 09:18:04,VALID,919.504,VALID,0,VALID,56.6572,VALID,512.387,VALID,25.0445,VALID,15,VALID,0.219531,
2014-07-25, 09:19:04,VALID,919.508,VALID,0,VALID,56.0855,VALID,516.147,VALID,25.2593,VALID,15,VALID,0.284766,
2014-07-25, 09:20:04,VALID,919.539,VALID,0,VALID,56.0397,VALID,515.503,VALID,25.4741,VALID,15,VALID,0.169531,
2014-07-25, 09:21:04,VALID,919.544,VALID,0,VALID,54.8962,VALID,519.478,VALID,25.728,VALID,15,VALID,0.569531,
2014-07-25, 09:22:04,VALID,919.544,VALID,0,VALID,53.1428,VALID,519.693,VALID,25.6499,VALID,15,VALID,0.289063,
2014-07-25, 09:23:04,VALID,919.55,VALID,0,VALID,52.9141,VALID,522.809,VALID,25.6109,VALID,329,VALID,0.943359,
2014-07-25, 09:24:04,VALID,919.594,VALID,0,VALID,55.3384,VALID,524.743,VALID,25.5913,VALID,329,VALID,0.759766,
2014-07-25, 09:25:04,VALID,919.576,VALID,0,VALID,53.4859,VALID,528.073,VALID,25.4156,VALID,286,VALID,1.35039,
2014-07-25, 09:26:04,VALID,919.596,VALID,0,VALID,55.3612,VALID,530.974,VALID,25.1031,VALID,287,VALID,0.442187,
2014-07-25, 09:27:04,VALID,919.572,VALID,0,VALID,55.872,VALID,532.156,VALID,25.0836,VALID,316,VALID,0.8,
2014-07-25, 09:28:04,VALID,919.548,VALID,0,VALID,55.2469,VALID,532.156,VALID,24.9469,VALID,292,VALID,1.92305,
2014-07-25, 09:29:04,VALID,919.508,VALID,0,VALID,55.7729,VALID,538.173,VALID,24.8883,VALID,309,VALID,1.01641,
2014-07-25, 09:30:04,VALID,919.539,VALID,0,VALID,56.337,VALID,540.429,VALID,24.9078,VALID,345,VALID,0.678516,
2014-07-25, 09:31:04,VALID,919.549,VALID,0,VALID,56.5657,VALID,541.826,VALID,24.8669,VALID,295,VALID,0.414063,
2014-07-25, 09:32:04,VALID,919.553,VALID,0,VALID,55.4832,VALID,544.727,VALID,25.0055,VALID,295,VALID,0.150781,
2014-07-25, 09:33:04,VALID,919.553,VALID,0,VALID,57.0841,VALID,549.024,VALID,25.1617,VALID,312,VALID,0.186328,
2014-07-25, 09:34:04,VALID,919.528,VALID,0,VALID,56.7487,VALID,551.603,VALID,25.3374,VALID,323,VALID,0.996094,
2014-07-25, 09:35:04,VALID,919.525,VALID,0,VALID,53.0209,VALID,551.388,VALID,25.5327,VALID,348,VALID,0.755859,
2014-07-25, 09:36:04,VALID,919.52,VALID,0,VALID,55.6128,VALID,555.363,VALID,25.6304,VALID,24,VALID,1.01094,
2014-07-25, 09:37:04,VALID,919.522,VALID,0,VALID,54.0195,VALID,559.554,VALID,25.7671,VALID,20,VALID,0.639844,
2014-07-25, 09:38:04,VALID,919.506,VALID,0,VALID,53.9052,VALID,563.744,VALID,25.8237,VALID,21,VALID,0.482812,
2014-07-25, 09:39:04,VALID,919.523,VALID,0,VALID,53.8747,VALID,567.397,VALID,25.8433,VALID,20,VALID,0.291797,
2014-07-25, 09:40:04,VALID,919.526,VALID,0,VALID,53.6155,VALID,570.513,VALID,25.8042,VALID,21,VALID,1.01602,
2014-07-25, 09:41:04,VALID,919.541,VALID,0,VALID,54.9801,VALID,572.769,VALID,25.648,VALID,20,VALID,0.305859,
2014-07-25, 09:42:04,VALID,919.498,VALID,0,VALID,52.5482,VALID,576.207,VALID,25.5503,VALID,20,VALID,0.709766,
2014-07-25, 09:43:04,VALID,919.536,VALID,0,VALID,54.3626,VALID,578.785,VALID,25.5894,VALID,20,VALID,1.34336,
2014-07-25, 09:44:04,VALID,919.501,VALID,0,VALID,54.05,VALID,580.934,VALID,25.8062,VALID,20,VALID,0.392188,
2014-07-25, 09:45:04,VALID,919.538,VALID,0,VALID,53.1581,VALID,582.653,VALID,25.8823,VALID,24,VALID,0.79375,
2014-07-25, 09:46:04,VALID,919.439,VALID,0,VALID,53.4249,VALID,583.728,VALID,25.7847,VALID,20,VALID,1.01133,
2014-07-25, 09:47:04,VALID,919.469,VALID,0,VALID,54.6751,VALID,586.736,VALID,25.7847,VALID,28,VALID,1.16484,
2014-07-25, 09:48:04,VALID,919.466,VALID,0,VALID,54.5608,VALID,589.207,VALID,25.8433,VALID,30,VALID,0.760156,
2014-07-25, 09:49:04,VALID,919.477,VALID,0,VALID,54.7514,VALID,591.678,VALID,25.9975,VALID,21,VALID,1.31211,
2014-07-25, 09:50:04,VALID,919.484,VALID,0,VALID,53.1505,VALID,594.472,VALID,26.1948,VALID,23,VALID,0.720703,
2014-07-25, 09:51:04,VALID,919.462,VALID,0,VALID,52.6168,VALID,595.761,VALID,26.1733,VALID,27,VALID,1.58906,
2014-07-25, 09:52:04,VALID,919.45,VALID,0,VALID,52.6854,VALID,599.199,VALID,26.273,VALID,25,VALID,0.653125,
2014-07-25, 09:53:04,VALID,919.446,VALID,0,VALID,52.7464,VALID,603.927,VALID,26.4097,VALID,25,VALID,0.260938,
2014-07-25, 09:54:04,VALID,919.413,VALID,0,VALID,51.6791,VALID,605.646,VALID,26.4683,VALID,25,VALID,0.820703,
2014-07-25, 09:55:04,VALID,919.417,VALID,0,VALID,51.7782,VALID,608.547,VALID,26.4292,VALID,25,VALID,0.640625,
2014-07-25, 09:56:04,VALID,919.418,VALID,0,VALID,51.9002,VALID,609.621,VALID,26.4683,VALID,4,VALID,0.683203,
2014-07-25, 09:57:04,VALID,919.383,VALID,0,VALID,50.9473,VALID,614.026,VALID,26.2925,VALID,311,VALID,1.60547,
2014-07-25, 09:58:04,VALID,919.359,VALID,0,VALID,53.181,VALID,616.82,VALID,25.9604,VALID,328,VALID,0.954297,
2014-07-25, 09:59:04,VALID,919.345,VALID,0,VALID,54.4846,VALID,619.721,VALID,25.8628,VALID,340,VALID,0.677734,
2014-07-25, 10:00:04,VALID,919.339,VALID,0,VALID,54.576,VALID,621.225,VALID,25.8022,VALID,297,VALID,0.508203,
2014-07-25, 10:01:04,VALID,919.37,VALID,0,VALID,54.0805,VALID,623.588,VALID,25.9214,VALID,356,VALID,0.711719,
2014-07-25, 10:02:04,VALID,919.363,VALID,0,VALID,54.6218,VALID,627.994,VALID,26.0952,VALID,356,VALID,1.17031,
2014-07-25, 10:03:04,VALID,919.355,VALID,0,VALID,53.8442,VALID,630.25,VALID,26.2905,VALID,328,VALID,0.80625,
2014-07-25, 10:04:04,VALID,919.367,VALID,0,VALID,52.998,VALID,629.927,VALID,26.271,VALID,290,VALID,1.01445,
2014-07-25, 10:05:04,VALID,919.33,VALID,0,VALID,52.937,VALID,631.539,VALID,26.2339,VALID,18,VALID,0.928516,
2014-07-25, 10:06:04,VALID,919.37,VALID,0,VALID,52.876,VALID,631.539,VALID,26.2319,VALID,340,VALID,1.19453,
2014-07-25, 10:07:04,VALID,919.359,VALID,0,VALID,54.2635,VALID,637.341,VALID,26.2124,VALID,360,VALID,0.970312,
2014-07-25, 10:08:04,VALID,919.356,VALID,0,VALID,51.6334,VALID,637.878,VALID,26.1928,VALID,330,VALID,1.03633,
2014-07-25, 10:09:04,VALID,919.352,VALID,0,VALID,52.411,VALID,641.961,VALID,26.2104,VALID,348,VALID,1.31641,
2014-07-25, 10:10:04,VALID,919.328,VALID,0,VALID,52.1594,VALID,644.002,VALID,26.1928,VALID,344,VALID,1.00977,
2014-07-25, 10:11:04,VALID,919.318,VALID,0,VALID,52.8608,VALID,645.399,VALID,26.0171,VALID,352,VALID,1.37969,
2014-07-25, 10:12:04,VALID,919.303,VALID,0,VALID,53.9433,VALID,646.366,VALID,25.9585,VALID,354,VALID,1.56172,
2014-07-25, 10:13:04,VALID,919.327,VALID,0,VALID,53.6002,VALID,648.085,VALID,26.0776,VALID,10,VALID,0.550391,
2014-07-25, 10:14:04,VALID,919.316,VALID,0,VALID,53.5164,VALID,649.589,VALID,26.1558,VALID,350,VALID,0.885938,
2014-07-25, 10:15:04,VALID,919.31,VALID,0,VALID,53.3868,VALID,651.845,VALID,26.2925,VALID,15,VALID,1.53086,
2014-07-25, 10:16:04,VALID,919.358,VALID,0,VALID,53.0514,VALID,655.821,VALID,26.4878,VALID,15,VALID,1.41562,
2014-07-25, 10:17:04,VALID,919.394,VALID,0,VALID,52.9294,VALID,657.325,VALID,26.566,VALID,21,VALID,1.05586,
2014-07-25, 10:18:04,VALID,919.392,VALID,0,VALID,52.0984,VALID,660.871,VALID,26.5855,VALID,330,VALID,0.723437,
2014-07-25, 10:19:04,VALID,919.395,VALID,0,VALID,52.0451,VALID,664.846,VALID,26.5074,VALID,20,VALID,1.05547,
2014-07-25, 10:20:04,VALID,919.394,VALID,0,VALID,51.8011,VALID,667.639,VALID,26.5074,VALID,20,VALID,1.30313,
2014-07-25, 10:21:04,VALID,919.373,VALID,0,VALID,52.7845,VALID,670.11,VALID,26.3902,VALID,312,VALID,0.994531,
2014-07-25, 10:22:04,VALID,919.366,VALID,0,VALID,53.1886,VALID,673.871,VALID,26.1167,VALID,249,VALID,0.447266,
2014-07-25, 10:23:04,VALID,919.347,VALID,0,VALID,53.5545,VALID,675.375,VALID,26.0972,VALID,19,VALID,1.91836,
2014-07-25, 10:24:04,VALID,919.359,VALID,0,VALID,54.9038,VALID,677.524,VALID,26.1558,VALID,261,VALID,0.721875,
2014-07-25, 10:25:04,VALID,919.399,VALID,0,VALID,54.5379,VALID,679.243,VALID,26.273,VALID,180,VALID,0.471875,
2014-07-25, 10:26:04,VALID,919.366,VALID,0,VALID,53.8823,VALID,679.78,VALID,26.2925,VALID,214,VALID,0.754687,
2014-07-25, 10:27:04,VALID,919.357,VALID,0,VALID,51.9383,VALID,681.607,VALID,26.3706,VALID,319,VALID,1.225,
2014-07-25, 10:28:04,VALID,919.342,VALID,0,VALID,53.7222,VALID,683.218,VALID,26.273,VALID,20,VALID,0.932031,
2014-07-25, 10:29:04,VALID,919.384,VALID,0,VALID,54.82,VALID,684.615,VALID,26.4878,VALID,331,VALID,0.892187,
2014-07-25, 10:30:04,VALID,919.347,VALID,0,VALID,54.5227,VALID,683.003,VALID,26.6832,VALID,14,VALID,1.25391,
2014-07-25, 10:31:04,VALID,919.334,VALID,0,VALID,50.9473,VALID,687.086,VALID,26.8004,VALID,329,VALID,1.30391,
2014-07-25, 10:32:04,VALID,919.355,VALID,0,VALID,51.3513,VALID,688.805,VALID,26.6832,VALID,350,VALID,1.4,